Regional Weather Roundup
Issued by NWS

Home | Current Version | Previous Version | Text Only | Print | Product List | Glossary Off
Versions: 1 2 3 4 5 6 7 8 9 10 11 12 13 14 15 16 17 18 19 20 21 22 23 24 25 26 27 28

000
ASUS45 KCYS 220110
RWRWY

WYOMING REGIONAL WEATHER ROUNDUP
NATIONAL WEATHER SERVICE CHEYENNE WY
700 PM MDT WED JUN 21 2017

NOTE:  "FAIR" INDICATES FEW OR NO CLOUDS BELOW 12,000 FEET
WITH NO SIGNIFICANT WEATHER AND/OR OBSTRUCTIONS TO VISIBILITY.

WYZ001-220200-
YELLOWSTONE NATIONAL PARK

CITY           SKY/WX    TMP DP  RH WIND       PRES   REMARKS
LK YELLOWSTONE   N/A     70  41  34 MISG      30.13F
W YELLOWSTONE  NOT AVBL

$$
WYZ002>013-054>058-071-098>099-220200-
NORTHERN WYOMING

CITY           SKY/WX    TMP DP  RH WIND       PRES   REMARKS
JACKSON        SUNNY     77  39  25 W12G23    30.03F
CODY           FAIR      79  46  31 N15       29.88R
GREYBULL       FAIR      90  45  21 N17       29.74S
WORLAND        FAIR      92  46  20 NE5       29.73S
SHERIDAN       FAIR      83  53  35 CALM      29.81F
BUFFALO        FAIR      77  52  41 N9        29.87F
GILLETTE       FAIR      83  50  31 NE12      29.80F
NEWCASTLE      FAIR      86  41  20 CALM      29.80F

$$
WYZ014>020-022>026-101>103-220200-
CENTRAL WYOMING

CITY           SKY/WX    TMP DP  RH WIND       PRES   REMARKS
BIG PINEY      FAIR      78  40  25 NW20G31   30.11R
PINEDALE       FAIR      72  43  35 W10       30.11F
DUBOIS         FAIR      75  32  20 NW28G36   30.02S
LANDER         FAIR      83  38  20 W10       29.92F
RIVERTON       FAIR      86  36  16 W18       29.89S
CASPER         FAIR      88  34  14 W18G25    29.86S
DOUGLAS        FAIR      84  52  33 SE7       29.85F

$$
WYZ021-027>030-104>119-220200-
SOUTHERN WYOMING

CITY           SKY/WX    TMP DP  RH WIND       PRES   REMARKS
EVANSTON       FAIR      81  38  21 W14       30.13S
KEMMERER         N/A     77  45  31 W14G21    30.15R
FORT BRIDGER   FAIR      85  39  19 W15G25    30.14S
ROCK SPRINGS   FAIR      81  34  18 W16       30.05F
DIXON          FAIR      82  34  17 W8G16     30.09S
RAWLINS        FAIR      82  35  18 SW15G24   30.04F
SARATOGA       FAIR      81  32  17 W9        30.10S
LARAMIE        FAIR      80  36  20 SW23      30.09R
CHEYENNE       FAIR      85  38  18 W20G32    29.98S
TORRINGTON     FAIR      93  40  15 NE6       29.78F
PINE BLUFFS    FAIR      90  39  17 CALM      29.89F

$$




USA.gov is the U.S. government's official web portal to all federal, state and local government web resources and services.